Location: Chuathbaluk
(61.5726°N, 159.2454°W)
Time: 13:42:46
(UTC+00:00)

NUDT-PHONESAT - Pass Details

Date: 24 January 2021
Orbit: 480 x 498 km, 97.4° (Epoch: 01 March)

Event Time Altitude Azimuth Distance (km) Brightness Sun altitude
Rises 05:34:09 0° 212° (SSW) 2,578 ? -22.1°
Reaches altitude 10° 05:36:54 10° 235° (SW) 1,705 ? -22.4°
Maximum altitude 05:39:11 16° 274° (W) 1,396 ? -22.7°
Drops below altitude 10° 05:41:28 10° 312° (NW) 1,718 ? -23.0°
Sets 05:44:16 0° 335° (NNW) 2,610 ? -23.3°
